QPF
0.00 0.00 0.00 0.00 0.00 0.00 0.00 0.00 0.00 0.00 0.00 0.00 0.00 0.00 0.00 0.00 0.00 0.00 0.00 0.00 0.00 0.00 0.00 0.00 0.00 0.00 0.00 0.00 0.00 0.00 0.00 0.00 0.00 0.00 0.00 0.00 0.00 0.00 0.00 0.00 0.00 0.00 0.00 0.00
0.00 0.00 0.00 0.00 0.00 0.00 0.00 0.00 0.00 0.00 0.00 0.00 0.00 0.00 0.00 0.00 0.00 0.00 0.00 0.00 0.00 0.00 0.00 0.00 0.00 0.00 0.00 0.00 0.00 0.00 0.00 0.00 0.00 0.00 0.00 0.00 0.00 0.00 0.00 0.00 0.00 0.00 0.00 0.00
0.00 0.00 0.00 0.00 0.00 0.00 0.00 0.00 0.00 0.00 0.00 0.00 0.00 0.00 0.00 0.00 0.00 0.00 0.00 0.00 0.00 0.00 0.00 0.00 0.00 0.00 0.00 0.00 0.00 0.00 0.00 0.00 0.00 0.00 0.00 0.00 0.00 0.00 0.00 0.00 0.00 0.00 0.00 0.00
0.00 0.00 0.00 0.00 0.00 0.00 0.00 0.00 0.00 0.00 0.00 0.00 0.00 0.00 0.00 0.00 0.00 0.00 0.00 0.00 0.00 0.00 0.00 0.00 0.00 0.00 0.00 0.00 0.00 0.00 0.00 0.00 0.00 0.00 0.00 0.00 0.00 0.00 0.00 0.00 0.00 0.00 0.00 0.00
0.00 0.00 0.00 0.00 0.00 0.00 0.00 0.00 0.00 0.00 0.00 0.00 0.00 0.00 0.00 0.00 0.00 0.00 0.00 0.00 0.00 0.00 0.00 0.00 0.00 0.00 0.00 0.00 0.00 0.00 0.00 0.00 0.00 0.00 0.00 0.00 0.00 0.00 0.00 0.00 0.00 0.00 0.00 0.00
0.00 0.00 0.00 0.00 0.00 0.00 0.00 0.00 0.00 0.00 0.00 0.00 0.00 0.00 0.00 0.00 0.00 0.00 0.00 0.00 0.00 0.00 0.00 0.00 0.00 0.00 0.00 0.00 0.00 0.00 0.00 0.00 0.00 0.00 0.00 0.00 0.00 0.00 0.00 0.00 0.00 0.00 0.00 0.00
0.00 0.00 0.00 0.00 0.00 0.00 0.00 0.00 0.00 0.00 0.00 0.00 0.00 0.00 0.00 0.00 0.00 0.00 0.00 0.00 0.00 0.00 0.00 0.00 0.00 0.00 0.00 0.00 0.00 0.00 0.00 0.00 0.00 0.00 0.00 0.00 0.00 0.00 0.00 0.00 0.00 0.00 0.00 0.00
0.00 0.00 0.00 0.00 0.00 0.00 0.00 0.00 0.00 0.00 0.00 0.00 0.00 0.00 0.00 0.00 0.00 0.00 0.00 0.00 0.00 0.00 0.00 0.00 0.00 0.00 0.00 0.00 0.00 0.00 0.00 0.00 0.00 0.00 0.00 0.00 0.00 0.00 0.00 0.00 0.00 0.00 0.00 0.00
0.00 0.00 0.00 0.00 0.00 0.00 0.00 0.00 0.00 0.00 0.00 0.00 0.00 0.00 0.00 0.00 0.00 0.00 0.00 0.00 0.00 0.00 0.00 0.00 0.00 0.00 0.00 0.00 0.00 0.00 0.00 0.00 0.00 0.00 0.00 0.00 0.00 0.00 0.00 0.00 0.00 0.00 0.00 0.00
0.00 0.00 0.00 0.00 0.00 0.00 0.00 0.00 0.00 0.00 0.00 0.00 0.00 0.00 0.00 0.00 0.00 0.00 0.00 0.00 0.00 0.00 0.00 0.00 0.00 0.00 0.00 0.00 0.00 0.00 0.00 0.00 0.00 0.00 0.00 0.00 0.00 0.00 0.00 0.00 0.00 0.00 0.00 0.00
0.00 0.00 0.00 0.00 0.00 0.00 0.00 0.00 0.00 0.00 0.00 0.00 0.00 0.00 0.00 0.00 0.00 0.00 0.00 0.00 0.00 0.00 0.00 0.00 0.00 0.00 0.00 0.00 0.00 0.00 0.00 0.00 0.00 0.00 0.00 0.00 0.00 0.00 0.00 0.00 0.00 0.00 0.00 0.00
0.00 0.00 0.00 0.00 0.00 0.00 0.00 0.00 0.00 0.00 0.00 0.00 0.00 0.00 0.00 0.00 0.00 0.00 0.00 0.00 0.00 0.00 0.00 0.00 0.00 0.00 0.00 0.00 0.00 0.00 0.00 0.00 0.00 0.00 0.00 0.00 0.00 0.00 0.00 0.00 0.00 0.00 0.00 0.00
0.00 0.00 0.00 0.00 0.00 0.00 0.00 0.00 0.00 0.00 0.00 0.00 0.00 0.00 0.00 0.00 0.00 0.00 0.00 0.00 0.00 0.00 0.00 0.00 0.00 0.00 0.00 0.00 0.00 0.00 0.00 0.00 0.00 0.00 0.00 0.00 0.00 0.00 0.00 0.00 0.00 0.00 0.00 0.00
0.00 0.00 0.00 0.00 0.00 0.00 0.00 0.00 0.00 0.00 0.00 0.00 0.00 0.00 0.00 0.00 0.00 0.00 0.00 0.00 0.00 0.00 0.00 0.00 0.00 0.00 0.00 0.00 0.00 0.00 0.00 0.00 0.00 0.00 0.00 0.00 0.00 0.00 0.00 0.00 0.00 0.00 0.00 0.00
0.00 0.00 0.00 0.00 0.00 0.00 0.00 0.00 0.00 0.00 0.00 0.00 0.00 0.00 0.00 0.00 0.00 0.00 0.00 0.00 0.00 0.00 0.00 0.00 0.00 0.00 0.00 0.00 0.00 0.00 0.00 0.00 0.00 0.00 0.00 0.00 0.00 0.00 0.00 0.00 0.00 0.00 0.00 0.00
0.00 0.00 0.00 0.00 0.00 0.00 0.00 0.00 0.00 0.00 0.00 0.00 0.00 0.00 0.00 0.00 0.00 0.00 0.00 0.00 0.00 0.00 0.00 0.00 0.00 0.00 0.00 0.00 0.00 0.00 0.00 0.00 0.00 0.00 0.00 0.00 0.00 0.00 0.00 0.00 0.00 0.00 0.00 0.00
0.00 0.00 0.00 0.00 0.00 0.00 0.00 0.00 0.00 0.00 0.00 0.00 0.00 0.00 0.00 0.00 0.00 0.00 0.00 0.00 0.00 0.00 0.00 0.00 0.00 0.00 0.00 0.00 0.00 0.00 0.00 0.00 0.00 0.00 0.00 0.00 0.00 0.00 0.00 0.00 0.00 0.00 0.00 0.00
0.00 0.00 0.00 0.00 0.00 0.00 0.00 0.00 0.00 0.00 0.00 0.00 0.00 0.00 0.00 0.00 0.00 0.00 0.00 0.00 0.00 0.00 0.00 0.00 0.00 0.00 0.00 0.00 0.00 0.00 0.00 0.00 0.00 0.00 0.00 0.00 0.00 0.00 0.00 0.00 0.00 0.00 0.00 0.00
0.00 0.00 0.00 0.00 0.00 0.00 0.00 0.00 0.00 0.00 0.00 0.00 0.00 0.00 0.00 0.00 0.00 0.00 0.00 0.00 0.00 0.00 0.00 0.00 0.00 0.00 0.00 0.00 0.00 0.00 0.00 0.00 0.00 0.00 0.00 0.00 0.00 0.00 0.00 0.00 0.00 0.00 0.00 0.00
0.00 0.00 0.00 0.00 0.00 0.00 0.00 0.00 0.00 0.00 0.00 0.00 0.00 0.00 0.00 0.00 0.00 0.00 0.00 0.00 0.00 0.00 0.00 0.00 0.00 0.00 0.00 0.00 0.00 0.00 0.00 0.00 0.00 0.00 0.00 0.00 0.00 0.00 0.00 0.00 0.00 0.00 0.00 0.00
0.00 0.00 0.00 0.00 0.00 0.00 0.00 0.00 0.00 0.00 0.00 0.00 0.00 0.00 0.00 0.00 0.00 0.00 0.00 0.00 0.00 0.00 0.00 0.00 0.00 0.00 0.00 0.00 0.00 0.00 0.00 0.00 0.00 0.00 0.00 0.00 0.00 0.00 0.00 0.00 0.00 0.00 0.00 0.00
0.00 0.00 0.00 0.00 0.00 0.00 0.00 0.00 0.00 0.00 0.00 0.00 0.00 0.00 0.00 0.00 0.00 0.00 0.00 0.00 0.00 0.00 0.00 0.00 0.00 0.00 0.00 0.00 0.00 0.00 0.00 0.00 0.00 0.00 0.00 0.00 0.00 0.00 0.00 0.00 0.00 0.00 0.00 0.00
0.00 0.00 0.00 0.00 0.00 0.00 0.00 0.00 0.00 0.00 0.00 0.00 0.00 0.00 0.00 0.00 0.00 0.00 0.00 0.00 0.00 0.00 0.00 0.00 0.00 0.00 0.00 0.00 0.00 0.00 0.00 0.00 0.00 0.00 0.00 0.00 0.00 0.00 0.00 0.00 0.00 0.00 0.00 0.00
0.00 0.00 0.00 0.00 0.00 0.00 0.00 0.00 0.00 0.00 0.00 0.00 0.00 0.00 0.00 0.00 0.00 0.00 0.00 0.00 0.00 0.00 0.00 0.00 0.00 0.00 0.00 0.00 0.00 0.00 0.00 0.00 0.00 0.00 0.00 0.00 0.00 0.00 0.00 0.00 0.00 0.00 0.00 0.00
0.00 0.00 0.00 0.00 0.00 0.00 0.00 0.00 0.00 0.00 0.00 0.00 0.00 0.00 0.00 0.00 0.00 0.00 0.00 0.00 0.00 0.00 0.00 0.00 0.00 0.00 0.00 0.00 0.00 0.00 0.00 0.00 0.00 0.00 0.00 0.00 0.00 0.00 0.00 0.00 0.00 0.00 0.00 0.00
0.00 0.00 0.00 0.00 0.00 0.00 0.00 0.00 0.00 0.00 0.00 0.00 0.00 0.00 0.00 0.00 0.00 0.00 0.00 0.00 0.00 0.00 0.00 0.00 0.00 0.00 0.00 0.00 0.00 0.00 0.00 0.00 0.00 0.00 0.00 0.00 0.00 0.00 0.00 0.00 0.00 0.00 0.00 0.00
MSLP
1014.54 1014.35 1013.79 1013.90 1014.43 1014.53 1013.78 1013.85 1013.55 1013.55 1013.83 1013.43 1012.42 1011.65 1010.81 1009.89 1010.09 1010.47 1010.75 1010.83 1010.99 1011.16 1011.78 1012.47 1012.31 1012.24 1012.50 1012.93 1013.50 1014.24 1015.02 1015.65 1016.53 1016.92 1017.09 1017.02 1016.80 1016.99 1017.02 1017.16 1017.27 1017.24 1017.22 1017.08
1015.08 1014.06 1014.34 1014.56 1014.77 1014.81 1014.30 1014.15 1014.09 1013.90 1013.90 1013.53 1012.64 1011.19 1010.59 1010.76 1011.49 1011.87 1012.25 1012.37 1012.45 1012.40 1012.63 1012.99 1013.11 1013.21 1013.29 1013.61 1014.18 1015.03 1015.63 1016.15 1016.70 1017.01 1017.13 1017.23 1017.12 1016.99 1017.04 1017.34 1017.40 1017.32 1017.28 1017.19
1014.27 1014.60 1014.65 1014.82 1015.07 1015.06 1014.60 1014.25 1014.43 1014.38 1014.19 1013.94 1013.35 1011.52 1011.22 1011.92 1012.42 1012.71 1013.60 1014.12 1014.07 1014.14 1014.04 1014.13 1014.14 1014.20 1014.10 1014.29 1014.88 1015.54 1016.22 1016.70 1017.23 1017.62 1017.62 1017.55 1017.38 1017.16 1017.05 1017.30 1017.36 1017.37 1017.36 1017.34
1015.10 1015.08 1014.81 1014.83 1014.73 1015.02 1014.70 1014.32 1014.23 1014.26 1014.23 1013.91 1014.05 1012.99 1012.20 1012.61 1013.15 1014.05 1015.02 1015.38 1015.48 1015.37 1015.32 1015.24 1015.18 1015.23 1015.29 1015.34 1015.71 1016.05 1016.62 1017.00 1017.42 1017.80 1017.70 1017.64 1017.27 1017.02 1017.15 1017.25 1017.41 1017.40 1017.39 1017.30
1014.96 1014.88 1014.75 1014.90 1014.59 1014.79 1014.83 1014.73 1014.36 1014.48 1014.54 1014.62 1014.59 1014.56 1013.06 1013.73 1014.54 1015.72 1016.77 1017.25 1017.14 1016.99 1016.73 1016.45 1016.05 1016.18 1016.32 1016.45 1016.56 1016.81 1017.11 1017.49 1017.85 1017.94 1017.69 1017.66 1017.69 1017.43 1017.55 1017.65 1017.40 1017.44 1017.34 1017.33
1015.10 1015.21 1014.94 1014.86 1015.22 1014.99 1015.20 1015.08 1015.16 1015.18 1015.06 1015.17 1015.12 1015.68 1014.72 1016.14 1017.70 1017.98 1018.58 1018.83 1018.68 1018.39 1017.85 1017.45 1017.42 1017.04 1016.63 1017.16 1017.49 1017.57 1017.68 1017.90 1018.04 1018.23 1018.02 1017.77 1017.96 1017.90 1017.84 1017.53 1017.29 1017.39 1017.34 1017.28
1015.38 1015.38 1015.37 1015.16 1015.34 1015.61 1015.23 1015.01 1015.38 1015.61 1015.40 1015.27 1016.02 1016.56 1016.24 1017.90 1019.26 1020.18 1020.29 1020.21 1020.15 1019.77 1019.00 1018.72 1018.25 1018.21 1018.00 1017.99 1018.05 1018.07 1017.97 1018.12 1018.50 1018.52 1018.36 1018.24 1018.14 1018.22 1018.05 1017.69 1017.37 1017.32 1017.28 1017.17
1014.62 1015.51 1015.24 1015.13 1014.86 1014.86 1015.16 1014.96 1014.23 1014.40 1015.26 1015.48 1016.45 1016.39 1017.02 1019.18 1020.40 1021.22 1021.63 1021.52 1021.31 1021.07 1020.58 1019.95 1019.65 1019.42 1019.18 1019.15 1019.08 1018.85 1018.75 1018.44 1018.61 1018.76 1018.63 1018.65 1018.37 1018.19 1018.01 1017.84 1017.77 1017.48 1017.31 1017.18
1013.95 1014.75 1015.29 1015.48 1015.16 1015.28 1015.33 1015.20 1014.85 1014.87 1016.34 1015.77 1015.16 1016.50 1018.37 1019.54 1020.84 1021.82 1022.16 1021.99 1022.24 1022.05 1021.75 1021.22 1021.20 1020.85 1020.34 1020.15 1020.04 1019.75 1019.54 1019.25 1019.11 1018.87 1018.77 1018.75 1018.69 1018.38 1018.14 1017.96 1017.93 1017.76 1017.55 1017.38
1013.98 1014.98 1015.85 1015.89 1015.73 1015.51 1015.12 1014.74 1015.04 1014.74 1014.96 1015.20 1015.31 1016.55 1017.68 1019.78 1021.46 1022.50 1022.78 1022.99 1023.27 1022.99 1022.75 1022.52 1022.35 1022.05 1021.77 1021.42 1021.07 1020.57 1020.27 1020.01 1019.88 1019.29 1018.97 1018.73 1018.93 1018.64 1018.30 1018.13 1017.89 1017.81 1017.66 1017.49
1014.53 1014.67 1016.34 1016.37 1015.70 1015.06 1015.54 1014.97 1014.65 1014.54 1014.41 1014.59 1015.83 1017.03 1019.48 1021.04 1022.51 1023.33 1023.85 1024.13 1024.21 1023.97 1023.65 1023.64 1023.32 1023.05 1022.82 1022.53 1021.99 1021.74 1021.09 1020.70 1020.48 1020.27 1019.41 1018.75 1018.90 1018.83 1018.43 1018.18 1017.98 1017.82 1017.74 1017.52
1015.22 1015.80 1016.12 1016.22 1016.12 1015.83 1015.38 1014.85 1014.45 1014.07 1014.87 1015.39 1016.54 1018.64 1020.93 1022.27 1023.48 1024.25 1024.75 1025.05 1025.17 1024.98 1024.67 1024.45 1024.13 1023.96 1023.68 1023.18 1023.07 1022.80 1022.19 1021.51 1021.20 1020.82 1020.22 1019.22 1018.88 1018.88 1018.64 1018.23 1018.01 1017.85 1017.65 1017.51
1015.91 1016.26 1016.57 1017.02 1016.86 1016.26 1015.69 1015.41 1015.04 1014.73 1014.80 1015.40 1016.69 1019.40 1021.80 1023.00 1024.10 1025.00 1025.25 1025.60 1025.76 1025.63 1025.47 1025.20 1024.97 1024.75 1024.55 1024.26 1024.29 1023.66 1023.28 1022.51 1022.14 1021.20 1020.72 1020.02 1019.44 1019.08 1018.83 1018.50 1018.19 1017.97 1017.72 1017.44
1016.80 1016.85 1016.54 1016.27 1016.04 1016.06 1016.18 1015.93 1015.68 1015.52 1015.48 1015.54 1016.43 1019.22 1021.80 1023.17 1024.15 1025.24 1025.60 1026.04 1026.26 1026.38 1026.36 1026.22 1026.02 1025.73 1025.07 1025.16 1025.18 1024.59 1024.09 1023.48 1023.12 1022.29 1021.78 1021.43 1020.95 1020.30 1019.63 1019.09 1018.61 1018.19 1017.87 1017.53
1018.08 1017.77 1017.57 1017.45 1017.42 1017.31 1017.27 1017.28 1017.10 1016.70 1016.37 1016.79 1017.40 1019.39 1021.42 1023.52 1024.57 1025.58 1026.36 1026.64 1026.75 1026.91 1027.01 1027.03 1026.98 1026.72 1026.29 1026.21 1026.06 1025.65 1025.09 1024.56 1024.09 1023.15 1022.67 1022.44 1021.98 1021.31 1020.78 1020.16 1019.50 1018.71 1018.13 1017.72
1019.16 1018.86 1018.42 1018.45 1018.22 1018.35 1018.65 1018.95 1018.87 1018.73 1018.62 1018.55 1019.39 1021.61 1023.33 1024.49 1025.38 1026.13 1026.89 1027.15 1027.26 1027.45 1027.66 1027.63 1027.52 1027.37 1027.09 1027.03 1026.88 1026.61 1026.02 1025.43 1024.88 1024.22 1023.65 1023.30 1022.79 1022.09 1021.62 1021.11 1020.39 1019.56 1018.76 1018.06
1020.11 1019.49 1019.22 1019.18 1019.14 1019.37 1020.13 1020.46 1020.48 1020.60 1020.80 1021.02 1021.44 1023.00 1024.31 1025.22 1026.13 1026.87 1027.38 1027.68 1027.97 1028.02 1028.09 1028.00 1027.97 1027.89 1027.79 1027.72 1027.58 1027.19 1026.67 1026.16 1025.55 1025.09 1024.44 1023.83 1023.35 1022.74 1022.31 1021.81 1021.17 1020.40 1019.68 1018.87
1021.02 1020.45 1020.24 1020.10 1020.18 1020.80 1021.53 1022.05 1021.99 1022.03 1022.71 1023.01 1023.48 1024.30 1025.02 1025.74 1026.76 1027.47 1027.90 1028.04 1028.41 1028.67 1028.82 1028.87 1028.81 1028.60 1028.49 1028.43 1028.14 1027.69 1027.25 1026.84 1026.31 1025.69 1025.09 1024.56 1024.02 1023.52 1023.05 1022.49 1021.93 1021.17 1020.49 1019.81
1021.97 1021.28 1021.26 1021.10 1021.15 1021.81 1022.19 1022.65 1022.94 1022.92 1023.97 1024.33 1024.56 1025.05 1025.60 1026.32 1027.01 1027.82 1028.30 1028.67 1029.07 1029.32 1029.50 1029.56 1029.53 1029.38 1029.20 1029.00 1028.65 1028.05 1027.67 1027.35 1026.83 1026.35 1025.86 1025.39 1024.92 1024.24 1023.55 1023.07 1022.57 1021.83 1020.84 1020.08
1022.91 1022.38 1022.03 1022.12 1021.98 1022.04 1022.58 1023.30 1023.83 1024.08 1024.34 1024.88 1025.18 1025.60 1025.87 1026.52 1026.89 1027.61 1028.56 1029.03 1029.41 1029.74 1029.90 1029.96 1029.90 1029.76 1029.69 1029.54 1029.19 1028.60 1028.32 1028.06 1027.64 1027.24 1026.75 1026.15 1025.65 1025.06 1024.24 1023.62 1023.11 1022.33 1021.36 1020.26
1024.41 1023.85 1023.50 1023.19 1022.85 1022.79 1023.22 1023.95 1024.56 1025.03 1025.21 1025.28 1025.71 1026.13 1026.46 1026.82 1027.57 1028.20 1028.82 1029.27 1029.68 1029.96 1030.11 1030.24 1030.13 1029.95 1029.93 1029.82 1029.49 1029.02 1028.80 1028.60 1028.39 1028.00 1027.44 1026.73 1026.10 1025.54 1024.70 1024.09 1023.42 1022.48 1021.37 1020.32
1025.41 1024.96 1024.72 1024.69 1024.29 1024.11 1024.04 1024.76 1025.07 1024.99 1025.26 1025.62 1026.22 1026.66 1026.98 1027.35 1027.89 1028.43 1028.89 1029.34 1029.74 1030.05 1030.26 1030.41 1030.30 1030.14 1030.03 1029.99 1029.73 1029.40 1029.14 1029.11 1028.79 1028.37 1027.73 1027.09 1026.39 1025.75 1024.88 1024.20 1023.30 1022.54 1021.46 1020.53
1026.75 1025.77 1025.08 1025.08 1024.55 1024.56 1024.69 1024.78 1025.02 1025.16 1025.40 1025.98 1026.36 1026.94 1027.33 1027.69 1028.16 1028.67 1029.07 1029.52 1029.83 1030.13 1030.41 1030.70 1030.71 1030.53 1030.38 1030.38 1030.35 1030.04 1029.74 1029.51 1029.17 1028.88 1028.11 1027.31 1026.58 1025.82 1025.09 1024.20 1023.19 1022.35 1021.56 1020.70
1026.45 1026.36 1025.86 1025.40 1025.01 1024.94 1025.07 1025.40 1025.40 1025.50 1025.69 1026.23 1026.67 1027.17 1027.65 1028.00 1028.51 1028.88 1029.24 1029.60 1029.98 1030.30 1030.58 1030.94 1030.93 1030.78 1030.65 1030.65 1030.72 1030.57 1030.27 1030.00 1029.81 1029.10 1028.28 1027.42 1026.59 1025.80 1025.13 1024.37 1023.48 1022.55 1021.78 1020.93
1026.13 1026.21 1025.57 1025.10 1024.83 1025.06 1025.00 1025.05 1025.11 1025.59 1026.06 1026.65 1027.29 1027.58 1027.91 1028.35 1028.68 1029.03 1029.34 1029.77 1030.15 1030.57 1031.01 1031.31 1031.34 1031.26 1031.17 1031.17 1031.15 1031.00 1030.89 1030.65 1030.06 1029.32 1028.46 1027.56 1026.76 1026.11 1025.14 1024.34 1023.58 1022.72 1022.04 1021.46
1025.16 1024.45 1024.41 1023.63 1023.33 1023.52 1023.63 1024.17 1025.00 1025.58 1026.06 1026.63 1027.30 1027.99 1028.36 1028.64 1028.84 1029.34 1029.66 1030.09 1030.52 1030.93 1031.41 1031.56 1031.65 1031.64 1031.58 1031.58 1031.46 1031.25 1031.19 1030.97 1030.49 1029.60 1028.66 1027.97 1027.25 1026.32 1025.47 1024.43 1023.15 1022.81 1022.02 1021.15
Thickness
5594 5601 5607 5617 5615 5614 5626 5629 5636 5640 5640 5644 5659 5668 5680 5694 5696 5694 5693 5696 5700 5702 5700 5696 5700 5702 5700 5696 5692 5686 5679 5673 5663 5659 5656 5656 5657 5653 5650 5646 5642 5638 5634 5630
5589 5601 5605 5605 5605 5611 5618 5620 5625 5632 5633 5640 5654 5672 5682 5677 5674 5676 5675 5679 5684 5689 5692 5690 5691 5691 5690 5688 5683 5674 5669 5664 5658 5654 5653 5650 5650 5649 5646 5641 5637 5634 5630 5627
5593 5598 5600 5601 5601 5604 5612 5618 5614 5621 5626 5629 5638 5669 5668 5662 5663 5670 5664 5663 5668 5671 5674 5677 5678 5679 5680 5679 5673 5666 5659 5655 5649 5644 5643 5643 5643 5644 5643 5638 5635 5630 5626 5623
5586 5588 5593 5598 5601 5604 5607 5619 5620 5619 5623 5630 5627 5642 5641 5655 5657 5653 5649 5650 5654 5658 5662 5665 5666 5666 5665 5665 5661 5658 5653 5649 5644 5639 5639 5637 5640 5641 5638 5635 5630 5627 5623 5620
5585 5585 5591 5594 5604 5604 5609 5608 5616 5614 5614 5618 5622 5625 5654 5652 5647 5636 5631 5631 5634 5641 5645 5648 5654 5652 5650 5650 5649 5647 5645 5641 5636 5634 5635 5633 5631 5632 5630 5627 5627 5623 5620 5617
5572 5577 5587 5597 5588 5599 5595 5600 5599 5601 5607 5601 5608 5613 5645 5621 5607 5614 5612 5612 5615 5622 5631 5636 5635 5640 5645 5639 5636 5635 5633 5631 5630 5627 5628 5629 5624 5623 5622 5624 5624 5620 5617 5615
5563 5571 5576 5583 5586 5584 5592 5599 5587 5585 5588 5607 5589 5599 5624 5599 5591 5585 5589 5595 5598 5604 5614 5619 5624 5626 5628 5627 5627 5627 5628 5625 5620 5619 5620 5620 5619 5616 5615 5618 5620 5617 5614 5612
5567 5563 5572 5580 5589 5592 5586 5595 5606 5593 5594 5604 5579 5602 5616 5582 5576 5576 5576 5581 5584 5586 5593 5600 5606 5609 5611 5611 5612 5614 5615 5618 5615 5612 5612 5611 5612 5612 5612 5612 5610 5612 5610 5608
5563 5563 5563 5566 5574 5582 5582 5583 5590 5578 5537 5583 5611 5597 5580 5581 5574 5568 5569 5573 5570 5572 5577 5582 5583 5586 5592 5595 5596 5599 5601 5603 5604 5606 5606 5603 5602 5604 5604 5605 5603 5604 5603 5602
5560 5553 5548 5555 5563 5568 5579 5586 5580 5579 5574 5579 5598 5598 5616 5584 5563 5556 5556 5556 5555 5559 5562 5563 5566 5568 5572 5576 5579 5584 5586 5589 5589 5595 5597 5597 5592 5594 5596 5596 5597 5596 5596 5596
5550 5557 5540 5546 5559 5571 5566 5574 5575 5586 5584 5588 5589 5605 5559 5551 5539 5543 5540 5538 5540 5543 5547 5547 5551 5553 5555 5557 5562 5565 5571 5574 5575 5575 5583 5589 5585 5584 5587 5589 5589 5589 5588 5589
5539 5533 5539 5546 5545 5550 5558 5572 5579 5585 5565 5566 5574 5584 5528 5525 5522 5522 5522 5522 5523 5526 5530 5534 5537 5538 5540 5545 5545 5546 5552 5559 5562 5563 5566 5576 5578 5576 5577 5580 5582 5581 5581 5581
5527 5514 5530 5524 5536 5540 5550 5557 5561 5565 5568 5561 5574 5575 5512 5510 5509 5506 5509 5508 5509 5511 5514 5518 5521 5522 5524 5526 5526 5531 5534 5541 5544 5552 5553 5559 5564 5565 5566 5568 5570 5570 5571 5573
5507 5506 5525 5548 5542 5542 5541 5546 5551 5560 5557 5571 5575 5537 5502 5505 5503 5496 5496 5495 5494 5494 5496 5498 5501 5504 5509 5509 5508 5513 5517 5522 5525 5531 5535 5536 5539 5544 5549 5553 5556 5558 5559 5561
5483 5500 5500 5503 5505 5510 5515 5527 5532 5543 5556 5553 5559 5545 5517 5496 5487 5480 5477 5478 5479 5478 5478 5479 5480 5483 5487 5487 5488 5492 5497 5501 5505 5513 5516 5517 5520 5525 5528 5532 5537 5542 5546 5549
5468 5482 5483 5485 5492 5490 5498 5499 5504 5511 5516 5531 5532 5492 5478 5470 5467 5465 5459 5460 5462 5461 5459 5460 5461 5463 5466 5466 5467 5469 5474 5478 5484 5489 5494 5497 5500 5505 5509 5512 5517 5523 5528 5534
5455 5469 5477 5485 5477 5480 5491 5476 5480 5476 5469 5475 5510 5471 5456 5453 5446 5442 5440 5438 5437 5440 5441 5442 5442 5442 5443 5444 5446 5449 5453 5457 5462 5465 5471 5476 5480 5484 5488 5491 5496 5502 5507 5514
5437 5446 5451 5467 5454 5484 5447 5440 5449 5452 5442 5447 5445 5441 5438 5435 5424 5419 5417 5418 5417 5417 5418 5418 5419 5421 5423 5423 5425 5429 5432 5435 5440 5445 5450 5454 5458 5462 5466 5469 5474 5480 5485 5491
5421 5434 5428 5451 5453 5442 5436 5433 5439 5448 5434 5424 5428 5426 5424 5419 5414 5406 5404 5401 5397 5395 5393 5393 5394 5396 5398 5400 5403 5409 5412 5414 5418 5421 5425 5428 5432 5437 5443 5447 5451 5457 5465 5471
5411 5419 5427 5426 5444 5454 5428 5415 5411 5412 5446 5411 5414 5411 5413 5407 5414 5404 5388 5384 5380 5376 5375 5374 5374 5375 5375 5375 5378 5384 5387 5389 5392 5395 5399 5403 5406 5410 5416 5421 5426 5433 5441 5450
5391 5396 5403 5406 5423 5418 5409 5401 5396 5421 5426 5397 5396 5394 5393 5396 5388 5378 5372 5367 5363 5360 5358 5356 5357 5357 5355 5355 5358 5362 5364 5365 5367 5370 5373 5378 5382 5385 5391 5396 5401 5410 5420 5428
5379 5382 5385 5370 5394 5412 5392 5385 5399 5391 5384 5383 5377 5373 5371 5370 5365 5360 5356 5352 5348 5344 5341 5338 5337 5337 5336 5335 5336 5338 5341 5340 5342 5345 5349 5353 5357 5362 5368 5373 5380 5386 5395 5404
5358 5369 5388 5381 5393 5368 5370 5375 5367 5371 5372 5367 5365 5358 5355 5352 5348 5341 5338 5333 5330 5325 5322 5318 5316 5315 5314 5311 5310 5312 5314 5316 5316 5316 5321 5327 5332 5337 5342 5350 5357 5364 5370 5378
5335 5328 5352 5355 5352 5353 5355 5351 5355 5357 5358 5352 5349 5343 5337 5335 5328 5324 5319 5315 5310 5304 5300 5295 5292 5291 5288 5286 5283 5283 5286 5287 5285 5289 5293 5299 5305 5310 5315 5321 5329 5337 5343 5350
5342 5328 5333 5341 5344 5342 5341 5344 5349 5344 5339 5333 5327 5325 5322 5316 5312 5307 5302 5296 5291 5284 5278 5272 5267 5263 5260 5257 5254 5252 5254 5253 5254 5259 5264 5270 5275 5278 5285 5291 5297 5304 5311 5316
5332 5343 5350 5362 5353 5357 5356 5348 5340 5335 5330 5326 5319 5309 5305 5303 5300 5292 5287 5280 5273 5267 5259 5254 5247 5242 5238 5233 5227 5224 5222 5220 5220 5226 5230 5233 5237 5244 5250 5258 5271 5271 5279 5286